DW9106 Madrid ES current weather conditions

sailwx.info

Wind from 080 at 6 knots gusting 14

Air temperature -0.0° C
Dewpoint -8.4° C

Last reported at 2017-Jan-19 09:43 UTC.
Time now 2017-Jan-19 10:58 UTC

Location: N 40°23' W 003°38'.
View on Google Maps.

See reports from other nearby stations

  
Tides and Currents Weather Stations Pressure Air Temp Water Temp Dewpoint Dewpoint Depression Visibility Wind Speed Wind Dir Waves Ship Positions
date/time (UTC)wind fromknots sea level pressurealtimeterstation pressurevisibilityair tempwater tempwave heightnotes
2017-Jan-19 09:43 080 6 gusting 14 -0.0
2017-Jan-19 09:27 050 6 gusting 20 -0.0
2017-Jan-19 09:12 026 6 gusting 13 -0.6
2017-Jan-19 08:58 066 7 gusting 14 -1.1
2017-Jan-19 08:42 034 6 gusting 13 -1.1
2017-Jan-19 08:27 070 5 gusting 11 -1.1
2017-Jan-19 08:13 039 6 gusting 13 -1.1
2017-Jan-19 07:57 049 5 gusting 12 -1.7
2017-Jan-19 07:42 045 8 gusting 12 -1.7
2017-Jan-19 07:27 044 6 gusting 14 -1.7
2017-Jan-19 07:12 034 8 gusting 13 -1.7
2017-Jan-19 06:57 048 8 gusting 13 -1.7
2017-Jan-19 06:42 042 6 gusting 14 -1.7
2017-Jan-19 06:27 062 6 gusting 12 -1.7
2017-Jan-19 06:12 033 6 gusting 13 -1.7
2017-Jan-19 05:57 035 8 gusting 15 -2.2
2017-Jan-19 05:42 034 6 gusting 13 -2.2
2017-Jan-19 05:27 048 6 gusting 10 -2.2
2017-Jan-19 05:12 042 6 gusting 14 -2.2
2017-Jan-19 04:57 032 8 gusting 15 -2.2
2017-Jan-19 04:43 025 6 gusting 10 -2.2
2017-Jan-19 04:27 005 6 gusting 12 -2.2
2017-Jan-19 04:12 061 5 gusting 13 -2.2
2017-Jan-19 03:57 036 6 gusting 11 -2.2
2017-Jan-19 03:42 049 5 gusting 10 -2.2
2017-Jan-19 03:27 042 5 gusting 13 -2.8
2017-Jan-19 03:12 055 5 gusting 13 -2.2
2017-Jan-19 02:57 051 6 gusting 13 -2.2
2017-Jan-19 02:42 051 5 gusting 10 -2.2
2017-Jan-19 02:27 031 3 gusting 10 -2.2
2017-Jan-19 02:12 055 4 gusting 10 -2.2
2017-Jan-19 01:57 048 6 gusting 13 -2.2
2017-Jan-19 01:42 047 6 gusting 11 -2.2
2017-Jan-19 01:27 047 5 gusting 13 -2.2
2017-Jan-19 01:12 040 7 gusting 13 -1.7
2017-Jan-19 00:56 040 5 gusting 11 -1.7
2017-Jan-19 00:41 052 6 gusting 12 -1.7
2017-Jan-19 00:26 052 4 gusting 11 -1.7
2017-Jan-19 00:11 031 4 gusting 12 -1.1
2017-Jan-18 23:56 049 5 gusting 11 -1.1
2017-Jan-18 23:41 036 6 gusting 11 -1.1
2017-Jan-18 23:26 061 4 gusting 12 -1.1
2017-Jan-18 22:56 042 6 gusting 13 -0.6
2017-Jan-18 22:41 060 8 gusting 15 -0.6
2017-Jan-18 22:26 048 7 gusting 14 -0.0
2017-Jan-18 22:11 035 6 gusting 17 -0.0
2017-Jan-18 21:56 065 6 gusting 12 -0.0
2017-Jan-18 21:41 046 6 gusting 12 0.6
2017-Jan-18 21:26 044 6 gusting 11 0.6
2017-Jan-18 21:11 032 6 gusting 11 1.1
2017-Jan-18 20:56 055 4 gusting 10 1.1
2017-Jan-18 20:41 037 6 gusting 11 1.1
2017-Jan-18 20:26 046 5 gusting 11 1.1
2017-Jan-18 20:11 044 4 gusting 9 1.7
2017-Jan-18 19:56 051 5 gusting 8 1.7
2017-Jan-18 19:41 046 3 gusting 9 1.7
2017-Jan-18 19:26 052 5 gusting 11 2.2
2017-Jan-18 19:11 037 6 gusting 13 2.2
2017-Jan-18 18:56 041 6 gusting 12 2.8
2017-Jan-18 18:41 048 3 gusting 7 2.8
2017-Jan-18 18:26 050 3 gusting 7 3.3
2017-Jan-18 18:11 044 3 gusting 9 3.3
2017-Jan-18 17:56 038 3 gusting 7 3.9
2017-Jan-18 17:41 041 5 gusting 9 3.9
2017-Jan-18 17:26 056 1 gusting 6 3.9
2017-Jan-18 17:11 040 2 gusting 7 4.4
2017-Jan-18 16:56 067 3 gusting 6 4.4
2017-Jan-18 16:41 046 3 gusting 6 4.4
2017-Jan-18 16:26 039 3 gusting 6 5.0
2017-Jan-18 16:11 063 1 gusting 7 5.0
2017-Jan-18 15:56 042 5 gusting 9 5.0
2017-Jan-18 15:41 039 5 gusting 10 5.0
2017-Jan-18 15:26 046 2 gusting 8 5.0
2017-Jan-18 15:11 042 3 gusting 7 5.0
2017-Jan-18 14:56 038 2 gusting 7 5.0
2017-Jan-18 14:41 036 1 gusting 8 4.4
2017-Jan-18 14:26 029 3 gusting 8 4.4
2017-Jan-18 14:11 090 3 gusting 7 4.4
2017-Jan-18 13:56 051 3 gusting 6 4.4
2017-Jan-18 13:41 048 3 gusting 7 3.9
2017-Jan-18 13:26 054 3 gusting 7 3.9
2017-Jan-18 13:12 072 4 gusting 9 3.9
2017-Jan-18 12:56 067 4 gusting 9 3.3
2017-Jan-18 12:41 053 3 gusting 9 2.8
2017-Jan-18 12:26 046 3 gusting 9 2.8
2017-Jan-18 12:11 051 6 gusting 11 2.8
2017-Jan-18 11:56 035 4 gusting 11 2.2
2017-Jan-18 11:41 242 2 gusting 9 3.3
2017-Jan-18 11:26 043 6 gusting 13 1.7
2017-Jan-18 11:10 059 6 gusting 13 1.1
2017-Jan-18 10:55 049 5 gusting 12 1.1
2017-Jan-18 10:40 005 3 gusting 9 0.6
2017-Jan-18 10:25 044 6 gusting 12 -0.0
2017-Jan-18 10:10 053 6 gusting 13 -0.6
2017-Jan-18 09:55 060 3 gusting 9 -0.6
2017-Jan-18 09:40 073 6 gusting 15 -1.1
2017-Jan-18 09:25 039 6 gusting 13 -1.7
2017-Jan-18 09:10 050 3 gusting 10 -1.7
2017-Jan-18 08:55 040 3 gusting 13 -2.2
2017-Jan-18 08:40 055 4 gusting 9 -2.2
2017-Jan-18 08:25 066 3 gusting 10 -2.8
2017-Jan-18 08:10 036 6 gusting 10 -2.8
2017-Jan-18 07:54 056 6 gusting 12 -2.8
2017-Jan-18 07:40 027 6 gusting 12 -3.3
2017-Jan-18 07:25 055 6 gusting 12 -3.3
2017-Jan-18 07:09 039 4 gusting 7 -3.3
2017-Jan-18 06:54 049 2 gusting 8 -3.3
2017-Jan-18 06:39 032 5 gusting 8 -3.3
2017-Jan-18 06:24 042 2 gusting 4 -3.3
2017-Jan-18 06:09 054 1 gusting 6 -2.8
2017-Jan-18 05:54 044 4 gusting 9 -2.8
2017-Jan-18 05:39 053 3 gusting 8 -2.2
2017-Jan-18 05:24 039 2 gusting 6 -2.2
2017-Jan-18 05:09 061 2 gusting 5 -2.2
2017-Jan-18 04:54 024 1 gusting 7 -2.2
2017-Jan-18 04:39 055 4 gusting 7 -2.2
2017-Jan-18 04:24 053 4 gusting 10 -1.7
2017-Jan-18 04:09 050 3 gusting 7 -1.7
2017-Jan-18 03:54 096 2 gusting 7 -1.7
2017-Jan-18 03:39 061 1 gusting 6 -1.7
2017-Jan-18 03:24 046 1 gusting 6 -1.7
2017-Jan-18 03:09 037 2 gusting 6 -1.1
2017-Jan-18 02:54 051 3 gusting 12 -1.1
2017-Jan-18 02:39 058 2 gusting 8 -1.1
2017-Jan-18 02:24 038 3 gusting 11 -0.6
2017-Jan-18 02:09 048 2 gusting 8 -0.6
2017-Jan-18 01:54 056 3 gusting 9 -0.6
2017-Jan-18 01:39 042 6 gusting 14 -0.6
2017-Jan-18 01:24 067 4 gusting 11 -0.6
2017-Jan-18 01:09 036 1 gusting 6 -0.6
2017-Jan-18 00:54 069 3 gusting 8 -0.6
2017-Jan-18 00:38 068 3 gusting 8 -0.6
2017-Jan-18 00:23 025 2 gusting 7 -0.6
2017-Jan-18 00:08 063 2 gusting 8 -0.6
2017-Jan-17 23:53 055 3 gusting 6 -0.6
2017-Jan-17 23:38 033 2 gusting 11 -0.6
2017-Jan-17 23:23 080 1 gusting 11 -0.0
2017-Jan-17 23:08 071 1 gusting 12 -0.0
2017-Jan-17 22:53 042 2 gusting 8 -0.0
2017-Jan-17 22:38 060 2 gusting 7 -0.0
2017-Jan-17 22:24 042 2 gusting 7 0.6
2017-Jan-17 22:08 057 1 gusting 7 0.6
2017-Jan-17 21:53 069 4 gusting 9 0.6
2017-Jan-17 21:38 044 3 gusting 8 1.1
2017-Jan-17 21:23 056 2 gusting 8 1.1
2017-Jan-17 21:08 057 1.1
2017-Jan-17 20:53 123 0 gusting 7 1.7
2017-Jan-17 20:38 051 1 gusting 7 1.7
2017-Jan-17 20:23 036 3 gusting 12 2.2
2017-Jan-17 20:08 047 4 gusting 12 2.2
2017-Jan-17 19:53 068 4 gusting 13 2.2
2017-Jan-17 19:38 042 5 gusting 13 2.8
2017-Jan-17 19:23 047 3 gusting 10 2.8
2017-Jan-17 19:08 057 5 gusting 9 2.8
2017-Jan-17 18:53 226 2 gusting 9 3.3
2017-Jan-17 18:38 018 1 gusting 11 3.3
2017-Jan-17 18:23 051 2 gusting 13 3.9
2017-Jan-17 18:08 149 2 gusting 8 3.9
2017-Jan-17 17:52 050 3 gusting 11 4.4
2017-Jan-17 17:37 065 4 gusting 13 4.4
2017-Jan-17 17:22 036 4 gusting 15 5.0
2017-Jan-17 17:07 057 6 gusting 13 5.6
2017-Jan-17 16:52 092 5 gusting 12 6.1
2017-Jan-17 16:37 045 4 gusting 13 6.1
2017-Jan-17 16:22 060 6 gusting 12 6.7
2017-Jan-17 16:07 040 6 gusting 13 7.2
2017-Jan-17 15:52 061 4 gusting 14 7.8
2017-Jan-17 15:37 053 6 gusting 12 7.8
2017-Jan-17 15:22 076 4 gusting 13 8.3
2017-Jan-17 15:07 035 7 gusting 15 8.9
2017-Jan-17 14:52 044 6 gusting 19 8.9
2017-Jan-17 14:37 038 5 gusting 14 9.4
2017-Jan-17 14:22 054 6 gusting 13 9.4
2017-Jan-17 14:07 047 5 gusting 14 9.4
2017-Jan-17 13:52 095 6 gusting 14 10.0
2017-Jan-17 13:37 028 6 gusting 12 10.0
2017-Jan-17 13:22 063 6 gusting 13 10.6
2017-Jan-17 13:07 053 4 gusting 13 10.6
2017-Jan-17 12:52 051 7 gusting 16 10.0
2017-Jan-17 12:37 019 9 gusting 17 10.6
2017-Jan-17 12:22 039 12 gusting 22 10.0
2017-Jan-17 12:07 044 6 gusting 19 10.6
2017-Jan-17 11:52 045 9 gusting 15 10.6
2017-Jan-17 11:37 059 6 gusting 16 10.6
2017-Jan-17 11:22 053 6 gusting 13 10.6
2017-Jan-17 11:07 046 6 gusting 15 10.0
2017-Jan-17 10:52 045 4 gusting 13 10.0
2017-Jan-17 10:37 065 8 gusting 14 10.0
2017-Jan-17 10:22 040 3 gusting 16 10.6
2017-Jan-17 10:06 053 6 gusting 13 10.0